Flag for United Kingdom Weather past 2 weeks in Portsmouth, England, United Kingdom

Now
59 °F

Passing clouds.


Feels Like: 57 °F
Forecast: 56 / 67 °F
Wind: 12 mph from West

Location: Southampton / Weather Centre

Current Time: Aug 21, 2014 at 7:43:43 PM

Latest Report: Aug 21, 2014 at 6:50 PM


Visibility: N/A

Pressure: 29.92 "Hg

Humidity: 63%

Dew point: 46 °F

Location of PortsmouthLocation

Historic Weather in Portsmouth — Graph

°F

Portsmouth temperature yesterday

Maximum temperature yesterday: 63 °F (at 2:20 PM)
Minimum temperature yesterday: 39 °F (at 5:50 AM)
Average temperature yesterday: 56 °F

Past Weeks' High & Low Weather Summary

 TemperatureHumidityPressure
High75 °F (Aug 7, 2:50 PM)100% (Aug 7, 7:20 AM)30.18 "Hg (Aug 7, 7:20 AM)
Low37 °F (Aug 21, 5:50 AM)43% (Aug 17, 4:50 PM)29.33 "Hg (Aug 10, 10:50 AM)
Average61 °F67%29.86 "Hg
* Reported Aug 6 6:20 PM — Aug 21 6:20 PM, Portsmouth, Weather by CustomWeather, © 2014

Note: Actual official high and low records may vary slightly from our data, if they occured in-between our weather recording intervals... More about our weather records

Advertising

Portsmouth weather history for previous 24 hours

 ConditionsComfort  
Time TempWeatherWind HumidityBarometerVisibility
6:20 PM
Aug 21
59 °FPassing clouds.15 mph59%29.95 "HgN/A
5:50 PM59 °FScattered clouds.14 mph59%29.95 "HgN/A
5:20 PM59 °FScattered clouds.12 mph59%29.95 "HgN/A
4:50 PM59 °FScattered clouds.12 mph63%29.95 "HgN/A
4:20 PM61 °FScattered clouds.9 mph55%29.98 "HgN/A
3:50 PM57 °FScattered clouds.7 mph67%29.98 "HgN/A
3:20 PM59 °FScattered clouds.9 mph59%29.98 "HgN/A
2:50 PM59 °FScattered clouds.12 mph51%29.98 "HgN/A
2:20 PM63 °FScattered clouds.10 mph49%29.98 "HgN/A
1:50 PM61 °FScattered clouds.8 mph48%29.98 "HgN/A
1:20 PM61 °FScattered clouds.12 mph48%30.01 "HgN/A
12:50 PM61 °FScattered clouds.12 mph48%30.01 "HgN/A
12:20 PM59 °FScattered clouds.7 mph55%30.01 "HgN/A
11:50 AM59 °FScattered clouds.8 mph55%30.01 "HgN/A
11:20 AM59 °FPassing clouds.8 mph55%30.01 "HgN/A
10:50 AM59 °FPassing clouds.9 mph51%30.04 "HgN/A
10:20 AM59 °FPassing clouds.9 mph59%30.04 "HgN/A
9:50 AM57 °FPassing clouds.8 mph63%30.04 "HgN/A
9:20 AM55 °FPassing clouds.6 mph67%30.04 "HgN/A
8:50 AM54 °FPassing clouds.No wind82%30.04 "HgN/A
8:20 AM50 °FPassing clouds.No wind88%30.04 "HgN/A
7:50 AM45 °FSunny.No wind93%30.04 "Hg10 mi
7:20 AM43 °FSunny.No wind93%30.04 "Hg10 mi
6:50 AM39 °FClear.No wind100%30.04 "Hg10 mi
6:20 AM37 °FFog.No wind93%30.04 "HgN/A
5:50 AM37 °FFog.No wind100%30.04 "HgN/A
10:20 PM
Aug 20
52 °FClear.2 mph72%30.07 "Hg10 mi
9:50 PM52 °FPassing clouds.No wind67%30.07 "HgN/A
9:20 PM55 °FPassing clouds.3 mph63%30.07 "HgN/A
8:50 PM57 °FPassing clouds.2 mph59%30.07 "HgN/A
8:20 PM57 °FPassing clouds.2 mph59%30.04 "HgN/A
7:50 PM57 °FScattered clouds.5 mph59%30.04 "HgN/A
7:20 PM59 °FScattered clouds.6 mph51%30.04 "HgN/A
Weather by CustomWeather, © 2014

See weather overviewHow to use our weather pages